STARLINK-36076

Last updated on Wed Dec 31 2025 00:02:06 GMT+0000 (Coordinated Universal Time)

1 66588U 25270A 25364.63026841 .00079121 00000+0 18820-2 0 9999 2 66588 42.9993 89.7015 0001571 253.4984 106.5700 15.40695120 7100
UTC large
Height (km)
Speed (km/s)
/
Latitude / Longitude
Inclination (degrees)
Orbital Period (minutes)
Azimuth
Elevation
Range (km)
Doppler Factor

Next 0 passes for location: London (51.5072 / 0.1276)

Sorry there are no passes over London.